Weather Roundup
Issued by NWS Springfield, MO

Home | Current Version | Previous Version | Text Only | Print | Product List | Glossary On
Versions: 1 2 3 4 5 6 7 8 9 10 11 12 13 14 15 16 17 18 19 20 21 22 23 24 25 26 27 28 29 30 31 32 33 34 35 36 37 38 39 40 41 42 43 44 45 46 47 48 49 50
000
NZUS99 KSGF 010659
HRRSGF

HOURLY WEATHER
NATIONAL WEATHER SERVICE SPRINGFIELD MO
100 AM CST SUN FEB 01 2015

......SGF CWA......

CITY           SKY/WX    TMP DP  RH WIND       PRES   REMARKS
SPRINGFIELD    LGT RAIN  37  33  85 S21       29.82F FOG     WCI  26
JOPLIN         RAIN      39  38  96 W6        29.85F FOG     WCI  35
WEST PLAINS    CLOUDY    39  24  55 S9        29.92F WCI  33
ROLLA          RAIN      35  30  82 SE10      29.87F WCI  27
OSAGE BEACH    CLOUDY    36  32  87 SE3       29.87F

......SURROUNDING SGF CWA......

CITY           SKY/WX    TMP DP  RH WIND       PRES   REMARKS
CHANUTE        LGT RAIN  40  39  97 S9        29.82F FOG     WCI  34
PARSONS        LGT RAIN  41  40  96 S9        29.83F FOG
COFFEYVILLE    LGT RAIN  41  39  93 S12       29.83F
EMPORIA        LGT RAIN  38  38 100 S13       29.77F WCI  30
SILOAM SPRINGS CLOUDY    39  32  75 S12       29.86F WCI  32
HARRISON AR    LGT RAIN  41  34  76 S18       29.86F
NEAR YELLVILLE CLOUDY    43  27  52 SE5       29.90F

......KANSAS AND MISSOURI......

CITY           SKY/WX    TMP DP  RH WIND       PRES   REMARKS
KANSAS CTY INT LGT SNOW  33  33 100 SE10      29.82F FOG     WCI  25
DOWNTOWN KC    FLURRIES  34  32  92 SE5       29.83F WCI  30
COLUMBIA       LGT RAIN  34  31  88 E7        29.92F WCI  28
SEDALIA        MIX PCPN  34  32  92 E9        29.89F WCI  27
ST JOSEPH      LGT SNOW  32  32 100 SE3       29.83F FOG
ST LOUIS       LGT RAIN  39  29  67 SE10      29.99F WCI  32
SPIRIT OF STL  LGT RAIN  37  29  72 CALM      29.97F
KIRKSVILLE     SNOW      33  33 100 SE10      29.90F VSB 1/2 WCI  25
WICHITA        CLOUDY    41  41 100 SW14      29.77F
TOPEKA         LGT RAIN  33  32  96 E5        29.81F FOG     WCI  29
OLATHE         LGT SNOW  34  34 100 S7        29.82F FOG     WCI  28

......TENNESSEE......

CITY           SKY/WX    TMP DP  RH WIND       PRES   REMARKS
MEMPHIS        CLOUDY    51  24  34 S13G20    30.03F
NASHVILLE      CLOUDY    43  19  38 SE6       30.13F

......ARKANSAS.......

CITY           SKY/WX    TMP DP  RH WIND       PRES   REMARKS
FAYETTEVILLE   LGT RAIN  41  37  86 S21G30    29.84F
FT SMITH       RAIN      40  37  89 E14       29.89F FOG     WCI  32
LITTLE ROCK    CLOUDY    45  32  60 SE3       29.98F

......OKLAHOMA.......

CITY           SKY/WX    TMP DP  RH WIND       PRES   REMARKS
TULSA          LGT RAIN  43  43 100 S10       29.83F FOG
PONCA CITY     CLOUDY    42  40  92 SW7       29.82F FOG
MCALESTER      HVY RAIN  46  44  93 SW8       29.87R FOG
OKLAHOMA CITY  CLOUDY    45  43  93 S8        29.83F

......IOWA............

CITY           SKY/WX    TMP DP  RH WIND       PRES   REMARKS
DES MOINES     LGT SNOW  33  31  92 E8        29.90F VSB 3/4 WCI  26
QUAD CITIES    LGT SNOW  33  31  92 SE9       30.01F FOG     WCI  25

......ILLINOIS........

CITY           SKY/WX    TMP DP  RH WIND       PRES   REMARKS
QUINCY         LGT SNOW  33  31  92 SE9       29.96F FOG     WCI  25
CHICAGO        LGT SNOW  30  29  96 NE8       30.12F VSB 1   WCI  22




USA.gov is the U.S. government's official web portal to all federal, state and local government web resources and services.